World > North America > United States > Arkansas
Hourly Weather in Joy, ArkansasJoy, Arkansas Hourly Weather

Joy, AR Hourly Weather

Hourly Weather Joy, ArkansasHourly Weather in Joy, AR
Lat: 35.29N, Lon: 91.95W  ICAO: KSRC
Web Search
Joy Weather Warning NWS WEATHER ALERT FOR THE JOY, AR AREA - Issued: 801 AM CST Mon Dec 6 2021 Joy Weather Warning  

Pass this page to a friend. Tell them to point their camera at the QR Code near the bottom of this page.

Feedback

Joy Hourly Weather

36 Hour Weather Scroll   °F Click to change Joy hourly weather to Imperial units.Click to change Joy hourly weather to Metric units. °C
Currently, Clear, temperature is 41°F5°C, dew point 18°F-8°C, humidity 39%. Wind direction is N at 8 mph13 km/h with visibility of 10.00 mi16 km. Barometric pressure is 30.3 in1026 mb.

Dec 06
6:00 PM

Dec 06
7:00 PM

Dec 06
8:00 PM

Dec 06
9:00 PM

Dec 06
10:00 PM

Dec 06
11:00 PM

Dec 07
MIDNIGHT

Dec 07
1:00 AM

Dec 07
2:00 AM

Dec 07
3:00 AM

Dec 07
4:00 AM

Dec 07
5:00 AM

Dec 07
6:00 AM

Dec 07
7:00 AM

Dec 07
8:00 AM

Dec 07
9:00 AM

Dec 07
10:00 AM

Dec 07
11:00 AM

Dec 07
NOON

Dec 07
1:00 PM

Dec 07
2:00 PM

Dec 07
3:00 PM

Dec 07
4:00 PM

Dec 07
5:00 PM

Dec 07
6:00 PM

Dec 07
7:00 PM

Dec 07
8:00 PM

Dec 07
9:00 PM

Dec 07
10:00 PM

Dec 07
11:00 PM

Dec 08
MIDNIGHT

Dec 08
1:00 AM

Dec 08
2:00 AM

Dec 08
6:00 AM

Dec 08
7:00 AM

Dec 08
8:00 AM
Partly Cloudy Partly Cloudy Mostly Cloudy Mostly Cloudy Mostly Cloudy Partly Cloudy Partly Cloudy Partly Cloudy Mostly Cloudy Mostly Cloudy Mostly Cloudy Clear Clear Clear Clear Clear Clear Clear Clear Clear Clear Clear Clear Clear Clear Clear Mostly Clear Mostly Clear Mostly Clear Mostly Cloudy Mostly Cloudy Mostly Cloudy Cloudy Cloudy Cloudy Cloudy
Partly Cloudy Partly Cloudy Mostly Cloudy Mostly Cloudy Mostly Cloudy Partly Cloudy Partly Cloudy Partly Cloudy Mostly Cloudy Mostly Cloudy Mostly Cloudy Clear Clear Clear Clear Clear Clear Clear Clear Clear Clear Clear Clear Clear Clear Clear Mostly Clear Mostly Clear Mostly Clear Mostly Cloudy Mostly Cloudy Mostly Cloudy Cloudy Cloudy Cloudy Cloudy
40°F4°C 38°F3°C 37°F3°C 35°F2°C 34°F1°C 34°F1°C 33°F1°C 33°F1°C 33°F1°C 33°F1°C 33°F1°C 33°F1°C 33°F1°C 36°F2°C 40°F4°C 43°F6°C 47°F8°C 50°F10°C 54°F12°C 55°F13°C 56°F13°C 57°F14°C 55°F13°C 53°F12°C 51°F11°C 49°F9°C 47°F8°C 45°F7°C 45°F7°C 44°F7°C 44°F7°C 45°F7°C 47°F8°C 48°F9°C 55°F13°C 62°F17°C
- - - - - - - - - - - - - - - - - - - - - - - - - - - - - - - - - - - -
1% 1% 1% 1% 1% 1% 1% 5% 5% 5% 5% 5% 5% 0% 0% 0% 0% 0% 0% 0% 0% 0% 0% 0% 0% 2% 2% 2% 2% 2% 2% 4% 4% 4% 11% 11%
26°F-3°C 27°F-3°C 27°F-3°C 28°F-2°C 29°F-2°C 29°F-2°C 30°F-1°C 30°F-1°C 30°F-1°C 30°F-1°C 30°F-1°C 31°F-1°C 31°F-1°C 32°F0°C 33°F1°C 34°F1°C 34°F1°C 35°F2°C 35°F2°C 35°F2°C 36°F2°C 36°F2°C 37°F3°C 38°F3°C 39°F4°C 39°F4°C 40°F4°C 40°F4°C 41°F5°C 41°F5°C 42°F6°C 44°F7°C 46°F8°C 48°F9°C 52°F11°C 55°F13°C
57% 64% 67% 75% 82% 82% 89% 89% 89% 89% 89% 92% 92% 85% 76% 70% 60% 56% 48% 47% 47% 45% 51% 57% 63% 68% 76% 83% 86% 89% 93% 96% 96% 100% 90% 78%
ENE ENE ENE ENE ENE E E S SSW NNW NNW N N SSW SE NE NE ENE ENE E E SE ESE E E E E E E ENE ENE E SE S S S
4 mph 4 mph 3 mph 3 mph 3 mph 1 mph 1 mph 1 mph 1 mph 1 mph 1 mph 1 mph 1 mph 1 mph 3 mph 3 mph 3 mph 3 mph 3 mph 3 mph 5 mph 5 mph 5 mph 5 mph 5 mph 5 mph 4 mph 4 mph 4 mph 3 mph 3 mph 3 mph 6 mph 6 mph 6 mph 14 mph
10 mi16 km 10 mi16 km 10 mi16 km 10 mi16 km 10 mi16 km 10 mi16 km 10 mi16 km 10 mi16 km 10 mi16 km 10 mi16 km 10 mi16 km 10 mi16 km 10 mi16 km 10 mi16 km 10 mi16 km 10 mi16 km 10 mi16 km 10 mi16 km 10 mi16 km 10 mi16 km 10 mi16 km 10 mi16 km 10 mi16 km 10 mi16 km 10 mi16 km 10 mi16 km 10 mi16 km 10 mi16 km 10 mi16 km 10 mi16 km 10 mi16 km 10 mi16 km 10 mi16 km 10 mi16 km 10 mi16 km 10 mi16 km
Hour (CST)
Weather
Clouds
Temperature
Precip. Type
POP
Dewpoint
Humidity
Wind Direction
Wind Speed
Visibility
POP = Probability of Precipitation. ** Indicates missing data/values from model statistics.

24 Hour Forecast

Tonight - Clear. Lows in the upper 20s. Northeast winds 5 to 10 mph.
Tuesday - Mostly sunny. Highs in the upper 40s. East winds 5 to 10 mph.

48 Hour Forecast API Feed


Mon, Dec 6
6:00 pm

Mon, Dec 6
7:00 pm

Mon, Dec 6
8:00 pm

Mon, Dec 6
9:00 pm

Mon, Dec 6
10:00 pm

Mon, Dec 6
11:00 pm

Tue, Dec 7
Midnight

Tue, Dec 7
1:00 am

Tue, Dec 7
2:00 am

Tue, Dec 7
3:00 am

Tue, Dec 7
4:00 am

Tue, Dec 7
5:00 am

Tue, Dec 7
6:00 am

Tue, Dec 7
7:00 am

Tue, Dec 7
8:00 am

Tue, Dec 7
9:00 am

Tue, Dec 7
10:00 am

Tue, Dec 7
11:00 am

Tue, Dec 7
Noon

Tue, Dec 7
1:00 pm

Tue, Dec 7
2:00 pm

Tue, Dec 7
3:00 pm

Tue, Dec 7
4:00 pm

Tue, Dec 7
5:00 pm

Tue, Dec 7
6:00 pm

Tue, Dec 7
7:00 pm

Tue, Dec 7
8:00 pm

Tue, Dec 7
9:00 pm

Tue, Dec 7
10:00 pm

Tue, Dec 7
11:00 pm

Wed, Dec 8
Midnight

Wed, Dec 8
1:00 am

Wed, Dec 8
2:00 am

Wed, Dec 8
3:00 am

Wed, Dec 8
4:00 am

Wed, Dec 8
5:00 am

Wed, Dec 8
6:00 am

Wed, Dec 8
7:00 am

Wed, Dec 8
8:00 am

Wed, Dec 8
9:00 am

Wed, Dec 8
10:00 am

Wed, Dec 8
11:00 am

Wed, Dec 8
Noon

Wed, Dec 8
1:00 pm

Wed, Dec 8
2:00 pm

Wed, Dec 8
3:00 pm

Wed, Dec 8
4:00 pm

Wed, Dec 8
5:00 pm
ClearClearClearClearClearClearClearClearClearClearClearClearClearClearSunnySunnySunnySunnySunnySunnySunnySunnySunnyClearClearClearClearClearClearClearClearOvercastClearClearCloudyPartly CloudyClearClearSunnySunnySunnySunnySunnySunnySunnySunnySunnyClear
Clear Clear Clear Clear Clear Clear Clear Clear Clear Clear Clear Clear Clear Clear Sunny Sunny Sunny Sunny Sunny Sunny Sunny Sunny Sunny Clear Clear Clear Clear Clear Clear Clear Clear Overcast Clear Clear Cloudy Partly cloudy Clear Clear Sunny Sunny Sunny Sunny Sunny Sunny Sunny Sunny Sunny Clear
45°F
7°C
43°F
6°C
38°F
3°C
37°F
3°C
37°F
3°C
36°F
2°C
35°F
2°C
34°F
1°C
33°F
1°C
32°F
0°C
32°F
-0°C
31°F
-1°C
31°F
-1°C
31°F
-1°C
31°F
-1°C
33°F
1°C
37°F
3°C
41°F
5°C
43°F
6°C
45°F
7°C
47°F
8°C
47°F
8°C
47°F
9°C
46°F
8°C
41°F
5°C
40°F
5°C
39°F
4°C
39°F
4°C
38°F
4°C
38°F
4°C
38°F
4°C
38°F
4°C
38°F
3°C
38°F
4°C
39°F
4°C
39°F
4°C
40°F
4°C
39°F
4°C
37°F
3°C
40°F
4°C
45°F
7°C
51°F
11°C
55°F
13°C
57°F
14°C
57°F
14°C
57°F
14°C
57°F
14°C
56°F
13°C
21°F
-6°C
23°F
-5°C
20°F
-7°C
20°F
-7°C
20°F
-7°C
20°F
-7°C
19°F
-7°C
20°F
-7°C
20°F
-7°C
20°F
-7°C
21°F
-6°C
21°F
-6°C
21°F
-6°C
21°F
-6°C
21°F
-6°C
21°F
-6°C
19°F
-7°C
19°F
-7°C
19°F
-7°C
19°F
-7°C
20°F
-7°C
21°F
-6°C
22°F
-6°C
25°F
-4°C
24°F
-5°C
24°F
-5°C
23°F
-5°C
23°F
-5°C
23°F
-5°C
23°F
-5°C
23°F
-5°C
23°F
-5°C
24°F
-5°C
24°F
-5°C
24°F
-4°C
25°F
-4°C
26°F
-4°C
26°F
-4°C
26°F
-4°C
28°F
-3°C
29°F
-2°C
32°F
-0°C
33°F
0°C
33°F
1°C
33°F
1°C
33°F
1°C
34°F
1°C
38°F
3°C
30.27 in
1025 mb
30.3 in
1026 mb
30.3 in
1026 mb
30.3 in
1026 mb
30.33 in
1027 mb
30.3 in
1026 mb
30.3 in
1026 mb
30.3 in
1026 mb
30.27 in
1025 mb
30.27 in
1025 mb
30.24 in
1024 mb
30.24 in
1024 mb
30.24 in
1024 mb
30.21 in
1023 mb
30.24 in
1024 mb
30.24 in
1024 mb
30.21 in
1023 mb
30.24 in
1024 mb
30.21 in
1023 mb
30.15 in
1021 mb
30.06 in
1018 mb
30.06 in
1018 mb
30.03 in
1017 mb
30.03 in
1017 mb
30.03 in
1017 mb
30.03 in
1017 mb
30.06 in
1018 mb
30.06 in
1018 mb
30.06 in
1018 mb
30.03 in
1017 mb
30.03 in
1017 mb
30 in
1016 mb
30 in
1016 mb
30 in
1016 mb
30.03 in
1017 mb
30 in
1016 mb
30 in
1016 mb
30.03 in
1017 mb
30.06 in
1018 mb
30.06 in
1018 mb
30.06 in
1018 mb
30.09 in
1019 mb
30.06 in
1018 mb
30.03 in
1017 mb
30 in
1016 mb
30 in
1016 mb
29.97 in
1015 mb
30 in
1016 mb
38%44%47%49%50%51%53%56%58%61%63%65%65%66%66%60%48%41%37%35%34%35%36%44%50%51%51%53%53%54%54%54%56%56%55%56%56%59%62%61%52%47%43%41%40%40%42%51%
NNENNENNENNENNENNENNENNENNENENENENEENENEENEEEESEESEESEESEESESEEENEENEENENEENESESSEWWNWNNWWNNWNNWNNENEENEEEESEESEESEESE
7 mph
11 km/h
5 mph
8 km/h
5 mph
8 km/h
5 mph
8 km/h
6 mph
9 km/h
5 mph
9 km/h
5 mph
9 km/h
5 mph
8 km/h
5 mph
8 km/h
5 mph
8 km/h
5 mph
8 km/h
5 mph
8 km/h
4 mph
7 km/h
5 mph
8 km/h
4 mph
7 km/h
5 mph
8 km/h
9 mph
14 km/h
7 mph
12 km/h
7 mph
11 km/h
6 mph
10 km/h
7 mph
11 km/h
5 mph
9 km/h
6 mph
9 km/h
4 mph
7 km/h
4 mph
6 km/h
4 mph
6 km/h
3 mph
5 km/h
3 mph
5 km/h
4 mph
6 km/h
2 mph
4 km/h
2 mph
3 km/h
1 mph
2 km/h
1 mph
1 km/h
1 mph
2 km/h
3 mph
5 km/h
1 mph
2 km/h
1 mph
2 km/h
1 mph
2 km/h
2 mph
3 km/h
0 mph
1 km/h
2 mph
3 km/h
2 mph
3 km/h
3 mph
5 km/h
4 mph
6 km/h
4 mph
6 km/h
4 mph
7 km/h
5 mph
8 km/h
5 mph
8 km/h
0%0%0%0%0%0%0%0%0%0%0%0%0%0%0%0%0%0%0%0%0%0%0%0%0%0%0%0%0%0%0%0%0%0%0%0%0%0%0%0%0%0%0%0%0%0%0%0%
6 mi
10 km
6 mi
10 km
6 mi
10 km
6 mi
10 km
6 mi
10 km
6 mi
10 km
6 mi
10 km
6 mi
10 km
6 mi
10 km
6 mi
10 km
6 mi
10 km
6 mi
10 km
6 mi
10 km
6 mi
10 km
6 mi
10 km
6 mi
10 km
6 mi
10 km
6 mi
10 km
6 mi
10 km
6 mi
10 km
6 mi
10 km
6 mi
10 km
6 mi
10 km
6 mi
10 km
6 mi
10 km
6 mi
10 km
6 mi
10 km
6 mi
10 km
6 mi
10 km
6 mi
10 km
6 mi
10 km
6 mi
10 km
6 mi
10 km
6 mi
10 km
6 mi
10 km
6 mi
10 km
6 mi
10 km
6 mi
10 km
6 mi
10 km
6 mi
10 km
6 mi
10 km
6 mi
10 km
6 mi
10 km
6 mi
10 km
6 mi
10 km
6 mi
10 km
6 mi
10 km
6 mi
10 km

Day/Time
Weather
Condition
Temperature
Dew Point
Pressure
Humidity
Wind Direction
Wind Speed
Prob Precip %
Visibility
Prob Precip % = Probability of Precipitation.